[Iaude] MPEC S67: 2016 SL2 [a=2.06,e=0.77,i=1.8,H=25.4]

mpec at si.edu mpec at si.edu
Thu Sep 29 15:18:32 EDT 2016


M.P.E.C. 2016-S67                                Issued 2016 Sept. 27, 20:52 UT
 
     The Minor Planet Electronic Circulars contain information on unusual
         minor planets and routine data on comets.  They are published
    on behalf of Division F of the International Astronomical Union by the
          Minor Planet Center, Smithsonian Astrophysical Observatory,
                          Cambridge, MA 02138, U.S.A.

             Prepared using the Tamkin Foundation Computer Network

                              MPC at CFA.HARVARD.EDU
            URL http://www.minorplanetcenter.net/    ISSN 1523-6714


                                   2016 SL2
 
Observations:
     K16S02L* C2016 09 25.20509 01 01 14.08 -02 26 26.6          20.1 VqES067G96
     K16S02L  C2016 09 25.20730 01 01 14.34 -02 26 36.6          19.1 VqES067G96
     K16S02L  C2016 09 25.21193 01 01 15.00 -02 26 57.8          19.2 VqES067G96
     K16S02L  C2016 09 25.37909 01 01 37.13 -02 39 47.2          20.3 VqES067G96
     K16S02L  C2016 09 25.38152 01 01 37.53 -02 39 58.9          19.7 VqES067G96
     K16S02L  C2016 09 25.38368 01 01 37.75 -02 40 09.5          20.1 VqES067G96
     K16S02L  C2016 09 25.38591 01 01 38.06 -02 40 20.0          20.2 VqES067G96
     K16S02L KC2016 09 25.90255 01 03 37.33 -03 28 08.0                qES067587
     K16S02L KC2016 09 25.91567 01 03 40.07 -03 29 30.8          20.1 RqES067587
     K16S02L KC2016 09 25.92879 01 03 42.75 -03 30 55.3                qES067587
     K16S02L  C2016 09 26.26402 01 05 16.66 -04 09 45.6          19.5 VqES067G96
     K16S02L  C2016 09 26.26666 01 05 17.29 -04 10 06.7          19.7 VqES067G96
     K16S02L  C2016 09 26.26932 01 05 17.93 -04 10 27.1          19.6 VqES067G96
     K16S02L  C2016 09 26.27210 01 05 18.63 -04 10 48.9          19.4 VqES067G96
     K16S02L KC2016 09 26.92371 01 09 30.61 -05 57 55.6          18.7 RqES067104
     K16S02L KC2016 09 26.92750 01 09 32.15 -05 58 42.2          18.9 RqES067104
     K16S02L KC2016 09 26.93155 01 09 33.87 -05 59 32.6          19.0 RqES067104
     K16S02L KC2016 09 27.21258701 12 08.11 -07 04 23.9          19.0 VuES067H21
     K16S02L KC2016 09 27.21656801 12 10.23 -07 05 26.4          19.0 VuES067H21
     K16S02L KC2016 09 27.22012301 12 12.15 -07 06 22.6          19.3 VuES067H21
     K16S02L KC2016 09 27.62623 01 17 12.55 -09 08 49.7          18.7 VqES067E23
     K16S02L KC2016 09 27.63272 01 17 17.82 -09 11 18.7          18.5 VqES067E23
     K16S02L KC2016 09 27.63920 01 17 23.06 -09 13 48.7          18.8 VqES067E23
 
Observer details:
104 San Marcello Pistoiese.  Observers P. Bacci, M. Maestripieri.  Measurers
    P. Bacci, L. Tesi, G. Fagioli.  0.60-m f/4 reflector + CCD.
587 Sormano.  Observers P. Sicoli, A. Testa.  Measurer A. Testa.  0.5-m f/6.8
    reflector + CCD.
E23 Arcadia.  Observer A. Hidas.  0.35-m f/1.9 reflector + CCD.
G96 Mt. Lemmon Survey.  Observers D. C. Fuls, E. J. Christensen.  Measurers
    E. J. Christensen, D. C. Fuls, A. R. Gibbs, A. D. Grauer, J. A. Johnson,
    R. A. Kowalski, S. M. Larson, G. J. Leonard, R. G. Matheny, R. L. Seaman,
    F. C. Shelly.  1.5-m reflector + 10K CCD.
H21 Astronomical Research Observatory, Westfield.  Observer R. Holmes.
    Measurers S. Foglia, L. Buzzi, T. Linder, R. Holmes.  0.61-m f/4.5
    astrograph + CCD.
 
Orbital elements:
2016 SL2                                                 Earth MOID = 0.0061 AU
Epoch 2016 July 31.0 TT = JDT 2457600.5                 MPC
M 324.69686              (2000.0)            P               Q
n   0.33226187     Peri.   90.89571     -0.31675765     -0.94845851
a   2.0645039      Node    17.58035     +0.85719003     -0.29055450
e   0.7697185      Incl.    1.81038     +0.40606630     -0.12650907
P   2.97           H   25.4           G   0.15           U   7
Residuals in seconds of arc
160925 G96  0.2+  0.8+    160925 587  0.6+  0.0     160926 104  0.0   0.1+
160925 G96  0.5-  0.6+    160925 587  0.3+  0.7-    160927 H21  0.2-  0.0
160925 G96  0.3-  0.1-    160926 G96  0.1+  0.4+    160927 H21  0.3-  0.0
160925 G96  0.1-  0.0     160926 G96  0.2-  0.1-    160927 H21  0.0   0.3-
160925 G96  1.0+  0.1-    160926 G96  0.3-  0.3+    160927 E23  0.2-  0.0
160925 G96  0.1-  0.4-    160926 G96  0.0   0.3+    160927 E23  0.5+  0.2+
160925 G96  0.0   0.2-    160926 104  0.4+  0.1-    160927 E23  0.3+  0.1+
160925 587  0.1+  0.5-    160926 104  0.3-  0.2+

Ephemeris:
2016 SL2                 a,e,i = 2.06, 0.77, 2                   q = 0.4754
Date    TT    R. A. (2000) Decl.     Delta      r     Elong.  Phase     V
2016 08 28    00 43 06.6 +01 35 29   0.4814  1.4288   144.3    24.4    25.7
...
2016 09 12    00 50 01.2 +01 24 49   0.2483  1.2389   157.1    18.4    23.8
...
2016 09 20    00 54 00.0 +00 25 13   0.1324  1.1320   163.9    14.3    22.1
...
2016 09 26    01 03 56.9 -03 36 16   0.04806 1.0493   166.0    13.4    19.7
2016 09 27    01 10 02.5 -06 10 38   0.03425 1.0353   164.2    15.3    19.0
2016 09 28    01 24 25.3 -12 08 27   0.02067 1.0213   158.4    21.2    18.1
...
2016 10 04    12 38 21.5 -07 21 01   0.06428 0.9361     3.1   176.7
...
2016 10 12    12 45 30.9 -04 21 32   0.1785  0.8209     6.7   171.8
...
2016 10 27    12 52 59.7 -04 10 45   0.4239  0.6129    20.0   146.3    30.3

A. U. Tomatic                (C) Copyright 2016 MPC           M.P.E.C. 2016-S67




More information about the Iaude mailing list